Regional Weather Roundup
Issued by NWS

Home | Current Version | Previous Version | Graphics & Text | Print | Product List | Glossary On
Versions: 1 2 3 4 5 6 7 8 9 10 11 12 13 14 15 16 17 18 19 20 21 22 23 24 25 26 27 28 29 30 31 32 33 34 35 36 37 38 39 40 41 42 43 44 45 46 47 48 49 50
000
ASUS43 KMKX 311621
RWRWI

WISCONSIN REGIONAL WEATHER ROUNDUP
NATIONAL WEATHER SERVICE MILWAUKEE/SULLIVAN WI
1100 AM CDT FRI OCT 31 2014

NOTE: "FAIR" INDICATES FEW OR NO CLOUDS BELOW 12,000 FEET WITH NO
SIGNIFICANT WEATHER AND/OR OBSTRUCTIONS TO VISIBILITY.

WIZ001-002-006>008-014>016-023>028-311700-
NORTHWEST WISCONSIN

CITY           SKY/WX    TMP DP  RH WIND       PRES   REMARKS
SUPERIOR ARPT  SUNNY     33  20  59 NE12G17   30.57S WCI  24
ASHLAND        CLOUDY    33  22  63 N14G23    30.54R WCI  23
HAYWARD        CLOUDY    32  19  58 N12G21    30.51R WCI  23
SIREN          PTSUNNY   32  19  58 NE15      30.54R WCI  22
CUMBERLAND     CLOUDY    32  19  59 N17G25    30.50S WCI  21
RICE LAKE      CLOUDY    33  20  59 N12       30.52R WCI  24
CHETEK         PTSUNNY   34  21  60 N13G18    30.50R WCI  25
LADYSMITH      PTSUNNY   33  24  68 N14G20    30.48R WCI  23
EAU CLAIRE     PTSUNNY   35  20  54 N12G20    30.48S WCI  27
MENOMONIE      SUNNY     34  18  51 N21       30.50S WCI  23
NEW RICHMOND   MOSUNNY   33  18  53 N15       30.53R WCI  23
OSCEOLA        SUNNY     33  19  57 NE12G17   30.57R WCI  24
$$

WIZ003>005-009-010-017-018-311700-
NORTH CENTRAL WISCONSIN

CITY           SKY/WX    TMP DP  RH WIND       PRES   REMARKS
MANITOWISH WTR PTSUNNY   29  23  77 N9G20     30.42R WCI  21
ARBOR VITAE    FLURRIES  32  26  78 N15G25    30.40R WCI  21
WOODRUFF       FLURRIES  32  26  78 N15G25    30.40R WCI  21
RHINELANDER    CLOUDY    29  21  72 NE15G25   30.38R WCI  18
EAGLE RIVER    CLOUDY    28  21  73 N15G23    30.38R WCI  17
LAND O LAKES   CLOUDY    29  23  78 N15G21    30.41R WCI  18
PHILLIPS       CLOUDY    30  22  74 N22G29    30.43R WCI  17
TOMAHAWK       CLOUDY    30  22  70 N13G23    30.40R WCI  20
MEDFORD        PTSUNNY   32  19  59 N21G32    30.40R WCI  20
MERRILL        MOSUNNY   33  21  62 NE16G31   30.38R WCI  22
$$

WIZ029-030-035-036-043>047-311700-
CENTRAL WISCONSIN

CITY           SKY/WX    TMP DP  RH WIND       PRES   REMARKS
WAUSAU         MOSUNNY   32  17  54 NE15G29   30.37R WCI  22
MOSINEE        CLOUDY    30  21  69 N23       30.38R WCI  17
MARSHFIELD     CLOUDY    33  21  61 N17G26    30.39R WCI  22
STEVENS POINT  CLOUDY    31  20  62 N13G22    30.37R WCI  22
WAUPACA        CLOUDY    36  23  58 N18G29    30.34R WCI  25
WAUTOMA        CLOUDY    35  20  55 N17G36    30.35R WCI  25
WISC RAPIDS    MOSUNNY   35  21  56 N25G35    30.39R WCI  23
CAMP DOUGLAS   PTSUNNY   36  19  51 N14G26    30.39R WCI  27
$$

WIZ011>013-019>022-031-037>040-048>050-311700-
NORTHEAST WISCONSIN

CITY           SKY/WX    TMP DP  RH WIND       PRES   REMARKS
ANTIGO         CLOUDY    29  20  69 N25G31    30.35R WCI  15
SHAWANO        CLOUDY    37  22  55 N17G28    30.34R WCI  28
OCONTO         CLOUDY    38  22  52 N22G36    30.31R WCI  27
STURGEON BAY   CLOUDY    34  25  69 N26G40    30.28R WCI  21
GREEN BAY      PTSUNNY   36  22  56 N29G40    30.30R WCI  23
MANITOWOC      LGT RAIN  35  29  78 N18G33    30.24R WCI  24
APPLETON       PTSUNNY   36  19  51 N29G40    30.30R WCI  23
CLINTONVILLE   CLOUDY    36  21  55 N21G31    30.34R WCI  24
OSHKOSH        CLOUDY    36  21  54 N30G41    30.29R WCI  23
$$

WIZ032>034-041-042-053>061-311700-
SOUTHWEST WISCONSIN

CITY           SKY/WX    TMP DP  RH WIND       PRES   REMARKS
LA CROSSE      CLOUDY    36  21  54 N14G25    30.47R WCI  27
SPARTA         PTSUNNY   35  20  54 N15G29    30.44R WCI  25
VIROQUA        PTSUNNY   34  22  60 N17G28    30.39R WCI  24
BOSCOBEL       PTSUNNY   38  20  48 N14G24    30.41R WCI  30
PRAIRIE DU CHI MOSUNNY   36  19  48 N10G29    30.42R WCI  29
PLATTEVILLE    PTSUNNY   37  21  53 N23G32    30.35R WCI  25
$$

WIZ056-057-062-063-064-067-068-311700-
SOUTH CENTRAL WISCONSIN

CITY           SKY/WX    TMP DP  RH WIND       PRES   REMARKS
REEDSBURG      PTSUNNY   36  20  53 N16G31    30.36R WCI  26
BARABOO/DELLS  CLOUDY    36  20  52 N17G25    30.35R WCI  26
LONE ROCK      MOSUNNY   42  18  37 N17G33    30.37R
MINERAL POINT  PTSUNNY   37  18  44 N24G32    30.33R WCI  26
MADISON        PTSUNNY   37  23  56 N21G30    30.32R WCI  26
MIDDLETON      CLOUDY    37  22  54 N18G32    30.33R WCI  26
WATERTOWN      CLOUDY    34  23  64 N16G37    30.27R WCI  23
MONROE         PTSUNNY   36  23  60 N25G38    30.28R WCI  23
JANESVILLE     PTSUNNY   37  21  52 N25G37    30.25R WCI  26
$$

WIZ051-052-058>065-066-070>072-311700-
SOUTHEAST WISCONSIN

CITY           SKY/WX    TMP DP  RH WIND       PRES   REMARKS
MILWAUKEE      CLOUDY    37  24  59 N35G46    30.18R WCI  24
WAUKESHA       CLOUDY    34  21  60 N17G36    30.22R WCI  23
MILWAUKEE/TIMM CLOUDY    37  23  56 N31G39    30.21R WCI  25
RACINE         MIX PCPN  37  24  59 N23G37    30.17R WCI  26
BURLINGTON     CLOUDY    34  23  64 N28G36    30.21R WCI  21
KENOSHA        CLOUDY    37  25  61 N22G35    30.17R WCI  26
FOND DU LAC    CLOUDY    35  20  54 N30G43    30.30R WCI  22
SHEBOYGAN      CLOUDY    36  24  62 N20G36    30.22R WCI  25
WEST BEND      CLOUDY    34  23  64 N22G38    30.22R WCI  22
JUNEAU         CLOUDY    36  24  60 N20G29    30.28R WCI  25
$$

LSZ147-162-311700-
LAKE SUPERIOR

STATION/POSITION TIME  TEMP    WIND        PRES    WAVE
                       AIR SEA DIR/SP/G            HT/PER
                 (UTC) (F)     (DEG/KT/KT) (MB)    (FT/S)
W MID LAKE BUOY  1550   33 43  360/ 17/ 21 1033.9R   7/ 7
DEVILS ISLAND    1600   32      10/ 13/ 15 1035.6R
PORT WING        1540   33      10/ 16/ 23 1034.5R
SAXON HARBOR     1613   36      10/ 17/ 26 1033.2R
$$

LMZ867-665-643>646-311700-
LAKE MICHIGAN

STATION/POSITION TIME  TEMP    WIND        PRES    WAVE
                       AIR SEA DIR/SP/G            HT/PER
                 (UTC) (F)     (DEG/KT/KT) (MB)    (FT/S)
CHAMBERS ISLAND  1500   36     340/ 28/ 43 1024.7R
N MID LAKE BUOY  1550   36 49   10/ 33/ 39 1023.6R   9/ 7
NORTHPORT PIER   1507   36     360/ 29/ 32 1024.7R
KEWAUNEE LAKESHO 1600   35      10/ 19/ 25 1023.5R
SHEBOYGAN LAKESH 1600   37 49   10/ 42/ 46 1023.2R
PORT WASHINGTON  1521   37     350/ 16     1023.4R
ATWATER BUOY     1600   39      10/ 33     1022.3R
MILWAUKEE LAKESH 1600   38     350/ 25/ 33   N/A
S MID LAKE BUOY  1550   39 51  350/ 39/ 51 1016.6R  22/10
KENOSHA   LAKESH 1600   37     340/ 32/ 39 1020.3R
$$

TC  - TEMPERATURE IN CELSIUS
VSB - VISIBILITY IN STATUTE MILES
WCI - WIND CHILL INDEX
HX  - HEAT INDEX




USA.gov is the U.S. government's official web portal to all federal, state and local government web resources and services.